Terminal Aerodrome Forecast
Issued by NWS

Home | Current Version | Previous Version | Text Only | Print | Product List | Glossary On
Versions: 1 2 3 4 5 6 7 8 9 10 11 12 13 14 15
000
FTUS44 KMOB 232300
TAFBFM
TAF
KBFM 232320Z 2400/2424 17009KT P6SM SCT040
     FM240600 00000KT 4SM BR SKC
      TEMPO 2409/2412 1SM BR
     FM241300 15004KT P6SM FEW040 SCT250=

USA.gov is the U.S. government's official web portal to all federal, state and local government web resources and services.